Weather History for The Dalles, OR

Change the Weather History Date:

Friday, March 7, 2014

  Actual Average Record
Temperature  
Mean Temperature 52 °F -  
Max Temperature 61 °F 55 °F 71 °F (2005)
Min Temperature 42 °F 34 °F 26 °F (1952)
Degree Days  
Heating Degree Days 12    
Growing Degree Days 2 (Base 50)    
Moisture  
Dew Point 42 °F    
Average Humidity 72    
Maximum Humidity 89    
Minimum Humidity 48    
Precipitation  
Precipitation 0.00 in - - ()
Sea Level Pressure  
Sea Level Pressure 30.22 in    
Wind  
Wind Speed 9 mph (WNW)    
Max Wind Speed 16 mph    
Max Gust Speed -    
Visibility 10 miles    
Events      
Averages and records for this station are not official NWS values.
T = Trace of Precipitation, MM = Missing Value Source: NWS Daily Summary

Daily Weather History Graph

Daily Weather History Graph

Search for Another Location

Airport:

Trip Planner

Search our weather history database for the weather conditions in past years. The results will help you decide how hot, cold, wet, or windy it might be!

Date:

Astronomy

Mar. 07, 2014 Rise Set
Actual Time 6:32 AM PST 5:59 PM PST
Civil Twilight 6:02 AM PST 6:29 PM PST
Nautical Twilight 5:28 AM PST 7:03 PM PST
Astronomical Twilight 4:53 AM PST 7:38 PM PST
Moon 10:10 AM PST (3/7) 12:27 AM PST (3/7)
Length of Visible Light 12h 27m
Length of Day
11h 27m
Waxing Crescent, 43% of the Moon is Illuminated
Mar 7
Waxing Crescent
Mar 8
First Quarter
Mar 16
Full
Mar 23
Last Quarter
Mar 30
New

Hourly Weather History & Observations

Time (PST) Temp. Windchill Dew Point Humidity Pressure Visibility Wind Dir Wind Speed Gust Speed Precip Events Conditions
12:53 AM 48.9 °F - 43.0 °F 80% 30.13 in 10.0 mi West 16.1 mph - N/A   Partly Cloudy
1:53 AM 48.9 °F - 43.0 °F 80% 30.16 in 10.0 mi WNW 12.7 mph - N/A   Mostly Cloudy
2:53 AM 48.9 °F - 43.0 °F 80% 30.17 in 10.0 mi NNW 11.5 mph - N/A   Overcast
3:53 AM 48.0 °F - 43.0 °F 83% 30.19 in 10.0 mi WNW 4.6 mph - N/A   Overcast
4:53 AM 45.0 °F 42.6 °F 41.0 °F 86% 30.20 in 10.0 mi SSW 4.6 mph - N/A   Partly Cloudy
5:53 AM 44.1 °F 40.8 °F 39.9 °F 85% 30.22 in 10.0 mi SE 5.8 mph - N/A   Mostly Cloudy
6:53 AM 46.9 °F - 41.0 °F 80% 30.24 in 10.0 mi WSW 3.5 mph - N/A   Overcast
7:53 AM 48.9 °F - 43.0 °F 80% 30.26 in 10.0 mi WNW 3.5 mph - N/A   Overcast
8:53 AM 50.0 °F - 43.0 °F 77% 30.27 in 10.0 mi Variable 3.5 mph - N/A   Partly Cloudy
9:53 AM 51.1 °F - 43.0 °F 74% 30.29 in 10.0 mi WNW 8.1 mph - N/A   Scattered Clouds
10:53 AM 55.0 °F - 44.1 °F 67% 30.29 in 10.0 mi NNW 8.1 mph - N/A   Partly Cloudy
11:53 AM 55.9 °F - 43.0 °F 62% 30.27 in 10.0 mi NW 15.0 mph - N/A   Clear
12:53 PM 59.0 °F - 43.0 °F 55% 30.25 in 10.0 mi NW 12.7 mph - N/A   Scattered Clouds
1:53 PM 57.9 °F - 43.0 °F 58% 30.23 in 10.0 mi NNW 8.1 mph - N/A   Mostly Cloudy
2:53 PM 59.0 °F - 41.0 °F 51% 30.22 in 10.0 mi Calm Calm - N/A   Scattered Clouds
3:53 PM 61.0 °F - 41.0 °F 48% 30.19 in 10.0 mi West 4.6 mph - N/A   Clear
4:53 PM 61.0 °F - 41.0 °F 48% 30.19 in 10.0 mi West 6.9 mph - N/A   Clear
5:53 PM 55.9 °F - 42.1 °F 60% 30.19 in 10.0 mi WNW 4.6 mph - N/A   Clear
6:53 PM 52.0 °F - 43.0 °F 71% 30.20 in 10.0 mi WSW 5.8 mph - N/A   Clear
7:53 PM 51.1 °F - 42.1 °F 71% 30.21 in 10.0 mi Variable 3.5 mph - N/A   Clear
8:53 PM 48.0 °F - 42.1 °F 80% 30.22 in 10.0 mi NW 4.6 mph - N/A   Clear
9:53 PM 46.9 °F - 42.1 °F 83% 30.22 in 10.0 mi NNW 3.5 mph - N/A   Clear
10:53 PM 44.1 °F 41.5 °F 39.9 °F 85% 30.21 in 10.0 mi WNW 4.6 mph - N/A   Clear
11:53 PM 42.1 °F - 39.0 °F 89% 30.20 in 10.0 mi Calm Calm - N/A   Clear